Location: Jangalapalle
(16.8036°N, 80.6370°E)
Time: 13:11:01
(UTC+00:00)

CARTOSAT-1 - Pass Details

Date: 05 August 2024
Orbit: 603 x 607 km, 97.6° (Epoch: 09 September)

Event Time Altitude Azimuth Distance (km) Brightness Sun altitude
Exits shadow 14:26:18 39° 100° (E) 923 3.9 -18.3°
Maximum altitude 14:26:56 41° 77° (ENE) 880 3.9 -18.5°
Drops below altitude 10° 14:30:57 10° 6° (N) 1,957 6.3 -19.3°
Sets 14:33:12 0° 360° (N) 2,861 7.3 -19.8°
